QPF
0.00 0.00 0.00 0.00 0.00 0.00 0.00 0.00 0.00 0.00 0.00 0.00 0.00 0.00 0.00 0.00 0.00 0.00 0.00 0.00 0.00 0.00 0.00 0.00 0.00 0.00 0.01 0.01 0.01 0.02 0.03 0.03 0.04 0.01 0.00 0.00 0.00 0.00 0.00 0.00 0.00 0.00 0.00
0.00 0.00 0.00 0.00 0.00 0.00 0.00 0.00 0.00 0.00 0.00 0.00 0.00 0.00 0.00 0.00 0.00 0.00 0.00 0.00 0.00 0.00 0.00 0.00 0.01 0.01 0.01 0.01 0.01 0.02 0.02 0.02 0.03 0.03 0.00 0.00 0.00 0.00 0.00 0.00 0.00 0.00 0.00
0.00 0.00 0.00 0.00 0.00 0.00 0.00 0.00 0.00 0.00 0.00 0.00 0.00 0.00 0.00 0.00 0.00 0.00 0.00 0.00 0.00 0.00 0.00 0.01 0.01 0.01 0.01 0.01 0.01 0.01 0.01 0.01 0.02 0.04 0.02 0.00 0.00 0.00 0.00 0.00 0.00 0.00 0.00
0.00 0.00 0.00 0.00 0.00 0.00 0.00 0.00 0.00 0.00 0.00 0.00 0.00 0.00 0.00 0.00 0.00 0.00 0.00 0.00 0.00 0.00 0.01 0.01 0.01 0.01 0.01 0.01 0.02 0.02 0.02 0.03 0.03 0.04 0.03 0.01 0.01 0.00 0.01 0.01 0.00 0.00 0.00
0.00 0.00 0.00 0.00 0.00 0.00 0.00 0.00 0.00 0.00 0.00 0.00 0.00 0.01 0.01 0.00 0.00 0.00 0.00 0.00 0.01 0.02 0.02 0.01 0.01 0.01 0.02 0.03 0.04 0.04 0.05 0.06 0.07 0.07 0.06 0.04 0.02 0.02 0.02 0.01 0.01 0.00 0.00
0.00 0.00 0.00 0.00 0.00 0.00 0.00 0.00 0.00 0.00 0.00 0.00 0.01 0.01 0.01 0.01 0.00 0.00 0.00 0.01 0.01 0.02 0.01 0.01 0.00 0.00 0.00 0.01 0.01 0.01 0.03 0.09 0.13 0.11 0.07 0.05 0.02 0.02 0.02 0.02 0.02 0.02 0.01
0.00 0.00 0.00 0.00 0.00 0.00 0.00 0.00 0.00 0.01 0.01 0.01 0.01 0.01 0.01 0.01 0.00 0.00 0.00 0.01 0.01 0.01 0.00 0.00 0.00 0.00 0.00 0.00 0.01 0.02 0.04 0.03 0.04 0.06 0.06 0.03 0.02 0.02 0.03 0.03 0.02 0.02 0.01
0.00 0.00 0.00 0.00 0.00 0.00 0.00 0.00 0.01 0.01 0.01 0.01 0.01 0.01 0.01 0.01 0.00 0.00 0.00 0.00 0.00 0.00 0.00 0.00 0.00 0.00 0.00 0.02 0.10 0.10 0.03 0.01 0.01 0.03 0.05 0.05 0.05 0.07 0.10 0.08 0.05 0.03 0.01
0.00 0.00 0.00 0.00 0.00 0.00 0.00 0.01 0.01 0.01 0.01 0.01 0.01 0.01 0.01 0.01 0.00 0.00 0.00 0.00 0.00 0.00 0.00 0.00 0.00 0.00 0.01 0.06 0.09 0.04 0.01 0.00 0.01 0.02 0.03 0.05 0.06 0.07 0.09 0.11 0.07 0.04 0.02
0.00 0.00 0.00 0.00 0.00 0.00 0.00 0.01 0.01 0.01 0.01 0.01 0.01 0.01 0.01 0.00 0.00 0.00 0.00 0.00 0.00 0.00 0.00 0.00 0.00 0.00 0.03 0.04 0.03 0.02 0.01 0.03 0.03 0.01 0.01 0.01 0.01 0.01 0.03 0.05 0.05 0.03 0.02
0.00 0.00 0.00 0.00 0.00 0.00 0.01 0.01 0.01 0.01 0.02 0.02 0.01 0.01 0.01 0.00 0.00 0.00 0.00 0.00 0.01 0.01 0.01 0.00 0.00 0.01 0.03 0.03 0.02 0.01 0.03 0.04 0.01 0.01 0.01 0.01 0.01 0.01 0.01 0.02 0.03 0.04 0.03
0.00 0.00 0.00 0.00 0.00 0.00 0.01 0.01 0.01 0.02 0.02 0.02 0.02 0.01 0.01 0.00 0.00 0.00 0.00 0.00 0.01 0.02 0.01 0.00 0.00 0.01 0.02 0.01 0.01 0.01 0.02 0.01 0.00 0.01 0.01 0.01 0.01 0.02 0.02 0.02 0.02 0.03 0.02
0.00 0.00 0.00 0.00 0.00 0.01 0.01 0.01 0.02 0.02 0.02 0.02 0.02 0.01 0.00 0.00 0.00 0.00 0.00 0.00 0.00 0.00 0.00 0.00 0.00 0.01 0.00 0.00 0.00 0.01 0.00 0.00 0.00 0.01 0.01 0.01 0.02 0.02 0.03 0.02 0.02 0.02 0.02
0.00 0.00 0.00 0.00 0.00 0.01 0.01 0.01 0.02 0.02 0.02 0.02 0.01 0.01 0.00 0.00 0.00 0.00 0.00 0.00 0.00 0.00 0.00 0.00 0.00 0.00 0.00 0.00 0.00 0.00 0.00 0.00 0.01 0.01 0.01 0.02 0.02 0.02 0.03 0.03 0.03 0.02 0.02
0.00 0.00 0.00 0.00 0.00 0.01 0.01 0.01 0.02 0.02 0.02 0.01 0.01 0.01 0.00 0.00 0.00 0.00 0.00 0.00 0.00 0.00 0.01 0.00 0.00 0.00 0.00 0.00 0.00 0.00 0.00 0.00 0.00 0.00 0.01 0.02 0.02 0.02 0.03 0.03 0.04 0.04 0.03
0.00 0.00 0.00 0.00 0.00 0.00 0.01 0.01 0.01 0.01 0.01 0.01 0.01 0.01 0.00 0.00 0.00 0.00 0.00 0.00 0.00 0.00 0.00 0.00 0.00 0.00 0.00 0.00 0.00 0.00 0.00 0.00 0.00 0.01 0.01 0.02 0.02 0.03 0.03 0.03 0.04 0.05 0.04
0.00 0.00 0.00 0.00 0.00 0.00 0.00 0.01 0.01 0.02 0.02 0.01 0.01 0.01 0.00 0.00 0.00 0.00 0.00 0.00 0.00 0.00 0.00 0.00 0.00 0.00 0.00 0.00 0.01 0.01 0.00 0.00 0.00 0.00 0.01 0.02 0.03 0.03 0.04 0.04 0.05 0.06 0.05
0.00 0.00 0.00 0.00 0.00 0.00 0.01 0.01 0.01 0.02 0.02 0.02 0.01 0.01 0.01 0.00 0.00 0.00 0.00 0.00 0.00 0.00 0.00 0.00 0.00 0.00 0.00 0.01 0.01 0.01 0.01 0.00 0.00 0.00 0.01 0.01 0.02 0.03 0.04 0.04 0.05 0.07 0.07
0.00 0.00 0.00 0.00 0.00 0.00 0.01 0.01 0.01 0.01 0.01 0.01 0.01 0.01 0.01 0.01 0.00 0.00 0.00 0.00 0.00 0.00 0.00 0.00 0.00 0.00 0.00 0.01 0.01 0.01 0.01 0.01 0.01 0.00 0.00 0.01 0.02 0.03 0.04 0.04 0.05 0.06 0.06
0.00 0.00 0.00 0.00 0.00 0.01 0.01 0.01 0.01 0.01 0.01 0.01 0.01 0.01 0.01 0.01 0.00 0.00 0.00 0.00 0.00 0.00 0.00 0.00 0.00 0.00 0.01 0.01 0.01 0.01 0.01 0.01 0.01 0.00 0.00 0.00 0.01 0.02 0.04 0.05 0.06 0.07 0.07
0.00 0.00 0.00 0.01 0.00 0.01 0.01 0.01 0.01 0.01 0.01 0.01 0.01 0.01 0.01 0.00 0.00 0.00 0.00 0.00 0.00 0.00 0.00 0.00 0.00 0.00 0.00 0.01 0.01 0.01 0.01 0.01 0.01 0.01 0.00 0.00 0.01 0.02 0.03 0.04 0.06 0.07 0.08
0.00 0.00 0.01 0.01 0.01 0.01 0.01 0.02 0.02 0.02 0.02 0.01 0.01 0.01 0.01 0.00 0.00 0.00 0.00 0.00 0.00 0.00 0.00 0.00 0.00 0.00 0.01 0.01 0.01 0.01 0.01 0.01 0.01 0.01 0.00 0.00 0.01 0.01 0.02 0.03 0.05 0.06 0.08
0.01 0.01 0.01 0.01 0.01 0.02 0.03 0.03 0.03 0.03 0.02 0.02 0.02 0.01 0.01 0.00 0.00 0.00 0.00 0.00 0.00 0.00 0.00 0.00 0.00 0.00 0.00 0.01 0.01 0.02 0.01 0.01 0.01 0.01 0.01 0.01 0.01 0.00 0.01 0.02 0.03 0.05 0.07
0.01 0.01 0.01 0.02 0.02 0.03 0.04 0.04 0.04 0.03 0.03 0.02 0.02 0.01 0.01 0.00 0.00 0.00 0.00 0.00 0.00 0.00 0.00 0.00 0.00 0.00 0.00 0.01 0.01 0.01 0.01 0.01 0.01 0.01 0.01 0.01 0.00 0.00 0.00 0.01 0.02 0.04 0.05
0.01 0.02 0.02 0.03 0.04 0.05 0.05 0.05 0.05 0.04 0.03 0.02 0.02 0.01 0.01 0.00 0.00 0.00 0.00 0.00 0.00 0.00 0.00 0.00 0.00 0.00 0.00 0.00 0.00 0.01 0.01 0.01 0.01 0.02 0.01 0.00 0.00 0.00 0.00 0.01 0.01 0.02 0.04
0.03 0.03 0.04 0.05 0.06 0.06 0.06 0.05 0.04 0.03 0.03 0.02 0.02 0.01 0.01 0.01 0.00 0.00 0.00 0.00 0.00 0.00 0.00 0.00 0.00 0.00 0.00 0.00 0.00 0.01 0.01 0.01 0.01 0.01 0.01 0.00 0.00 0.00 0.00 0.00 0.01 0.02 0.03
MSLP
1013.63 1014.21 1014.78 1015.33 1015.85 1016.36 1016.87 1017.41 1017.96 1018.55 1019.14 1019.74 1020.29 1020.79 1021.21 1021.55 1021.79 1021.96 1022.07 1022.13 1022.14 1022.12 1022.04 1021.89 1021.65 1021.29 1020.81 1020.21 1019.49 1018.68 1017.83 1016.97 1016.13 1015.35 1014.65 1014.03 1013.49 1013.00 1012.55 1012.10 1011.63 1011.11 1010.53
1012.94 1013.43 1013.91 1014.36 1014.80 1015.23 1015.69 1016.18 1016.72 1017.31 1017.93 1018.55 1019.14 1019.68 1020.13 1020.49 1020.74 1020.90 1020.98 1021.00 1020.96 1020.88 1020.75 1020.56 1020.30 1019.94 1019.49 1018.92 1018.26 1017.53 1016.74 1015.93 1015.12 1014.35 1013.63 1012.98 1012.39 1011.86 1011.37 1010.89 1010.42 1009.91 1009.36
1012.20 1012.61 1012.99 1013.35 1013.69 1014.05 1014.44 1014.89 1015.41 1016.00 1016.64 1017.29 1017.93 1018.51 1019.00 1019.38 1019.65 1019.81 1019.88 1019.86 1019.78 1019.65 1019.47 1019.24 1018.96 1018.60 1018.16 1017.64 1017.03 1016.36 1015.63 1014.86 1014.09 1013.33 1012.61 1011.93 1011.31 1010.73 1010.20 1009.70 1009.21 1008.70 1008.18
1011.36 1011.69 1011.98 1012.25 1012.51 1012.80 1013.14 1013.56 1014.07 1014.67 1015.33 1016.02 1016.70 1017.32 1017.86 1018.28 1018.57 1018.73 1018.78 1018.74 1018.62 1018.45 1018.22 1017.96 1017.64 1017.28 1016.85 1016.36 1015.80 1015.18 1014.50 1013.79 1013.05 1012.31 1011.59 1010.90 1010.25 1009.64 1009.08 1008.56 1008.06 1007.56 1007.05
1010.40 1010.66 1010.88 1011.07 1011.28 1011.52 1011.83 1012.24 1012.76 1013.38 1014.07 1014.80 1015.52 1016.19 1016.76 1017.21 1017.52 1017.68 1017.72 1017.65 1017.50 1017.28 1017.02 1016.72 1016.38 1016.00 1015.58 1015.11 1014.58 1014.00 1013.37 1012.69 1011.99 1011.28 1010.57 1009.88 1009.22 1008.61 1008.04 1007.51 1007.01 1006.52 1006.02
1009.34 1009.54 1009.70 1009.85 1010.03 1010.25 1010.57 1011.00 1011.54 1012.19 1012.93 1013.70 1014.46 1015.16 1015.75 1016.21 1016.52 1016.68 1016.71 1016.61 1016.42 1016.17 1015.86 1015.53 1015.17 1014.77 1014.35 1013.89 1013.39 1012.84 1012.24 1011.60 1010.93 1010.24 1009.55 1008.88 1008.24 1007.64 1007.08 1006.56 1006.07 1005.60 1005.11
1008.23 1008.38 1008.51 1008.65 1008.82 1009.06 1009.41 1009.88 1010.47 1011.16 1011.94 1012.74 1013.53 1014.24 1014.84 1015.30 1015.59 1015.73 1015.73 1015.60 1015.38 1015.09 1014.76 1014.40 1014.02 1013.61 1013.19 1012.74 1012.25 1011.71 1011.14 1010.53 1009.88 1009.22 1008.56 1007.91 1007.29 1006.72 1006.19 1005.70 1005.24 1004.78 1004.32
1007.14 1007.25 1007.37 1007.51 1007.71 1007.99 1008.39 1008.91 1009.56 1010.30 1011.11 1011.93 1012.72 1013.43 1014.01 1014.43 1014.70 1014.81 1014.77 1014.62 1014.37 1014.06 1013.71 1013.34 1012.95 1012.54 1012.12 1011.67 1011.19 1010.67 1010.11 1009.52 1008.89 1008.25 1007.61 1006.99 1006.40 1005.85 1005.35 1004.89 1004.46 1004.04 1003.61
1006.14 1006.22 1006.32 1006.48 1006.72 1007.06 1007.52 1008.10 1008.79 1009.57 1010.39 1011.21 1011.98 1012.65 1013.18 1013.57 1013.79 1013.86 1013.80 1013.63 1013.37 1013.07 1012.73 1012.37 1011.99 1011.60 1011.19 1010.75 1010.28 1009.77 1009.22 1008.63 1008.01 1007.38 1006.75 1006.14 1005.57 1005.04 1004.56 1004.13 1003.73 1003.34 1002.93
1005.26 1005.30 1005.40 1005.58 1005.85 1006.24 1006.75 1007.37 1008.10 1008.89 1009.70 1010.49 1011.21 1011.83 1012.31 1012.64 1012.82 1012.86 1012.79 1012.63 1012.40 1012.12 1011.82 1011.50 1011.16 1010.81 1010.43 1010.01 1009.55 1009.05 1008.50 1007.90 1007.28 1006.64 1006.00 1005.39 1004.81 1004.29 1003.82 1003.40 1003.02 1002.66 1002.28
1004.52 1004.52 1004.61 1004.79 1005.08 1005.50 1006.04 1006.69 1007.41 1008.18 1008.96 1009.70 1010.35 1010.90 1011.32 1011.60 1011.75 1011.79 1011.74 1011.62 1011.44 1011.24 1011.01 1010.76 1010.49 1010.20 1009.86 1009.47 1009.03 1008.53 1007.97 1007.37 1006.72 1006.06 1005.40 1004.76 1004.17 1003.62 1003.14 1002.72 1002.34 1001.99 1001.64
1003.90 1003.85 1003.91 1004.09 1004.38 1004.81 1005.35 1005.98 1006.67 1007.40 1008.11 1008.77 1009.35 1009.83 1010.19 1010.45 1010.60 1010.66 1010.66 1010.61 1010.54 1010.44 1010.32 1010.17 1009.99 1009.77 1009.49 1009.14 1008.71 1008.22 1007.65 1007.02 1006.36 1005.66 1004.96 1004.29 1003.65 1003.07 1002.56 1002.11 1001.71 1001.36 1001.02
1003.37 1003.27 1003.29 1003.44 1003.72 1004.12 1004.63 1005.22 1005.86 1006.51 1007.14 1007.72 1008.22 1008.64 1008.96 1009.21 1009.38 1009.51 1009.60 1009.66 1009.71 1009.74 1009.75 1009.72 1009.64 1009.50 1009.28 1008.97 1008.56 1008.07 1007.49 1006.85 1006.15 1005.42 1004.69 1003.97 1003.28 1002.65 1002.09 1001.59 1001.16 1000.79 1000.44
1002.90 1002.75 1002.72 1002.83 1003.08 1003.44 1003.89 1004.42 1004.98 1005.54 1006.08 1006.58 1007.01 1007.38 1007.69 1007.95 1008.18 1008.40 1008.60 1008.80 1008.99 1009.16 1009.30 1009.39 1009.41 1009.34 1009.17 1008.90 1008.51 1008.03 1007.45 1006.79 1006.07 1005.32 1004.55 1003.79 1003.06 1002.37 1001.75 1001.20 1000.71 1000.29 999.91
1002.46 1002.26 1002.19 1002.26 1002.46 1002.77 1003.16 1003.61 1004.08 1004.56 1005.01 1005.43 1005.80 1006.15 1006.46 1006.77 1007.07 1007.39 1007.72 1008.06 1008.39 1008.69 1008.96 1009.15 1009.25 1009.24 1009.11 1008.86 1008.49 1008.01 1007.43 1006.77 1006.05 1005.29 1004.51 1003.73 1002.96 1002.23 1001.55 1000.93 1000.37 999.87 999.43
1002.02 1001.79 1001.69 1001.73 1001.89 1002.14 1002.47 1002.85 1003.24 1003.63 1004.01 1004.36 1004.70 1005.03 1005.37 1005.73 1006.12 1006.55 1006.99 1007.46 1007.91 1008.33 1008.68 1008.94 1009.10 1009.12 1009.02 1008.78 1008.42 1007.95 1007.39 1006.75 1006.05 1005.31 1004.54 1003.76 1002.98 1002.21 1001.47 1000.78 1000.13 999.53 998.99
1001.59 1001.34 1001.23 1001.25 1001.38 1001.59 1001.87 1002.18 1002.50 1002.82 1003.14 1003.45 1003.77 1004.10 1004.47 1004.89 1005.36 1005.87 1006.42 1006.98 1007.53 1008.02 1008.43 1008.73 1008.91 1008.95 1008.85 1008.61 1008.26 1007.81 1007.28 1006.68 1006.02 1005.33 1004.59 1003.83 1003.05 1002.27 1001.48 1000.71 999.96 999.24 998.58
1001.15 1000.92 1000.81 1000.83 1000.94 1001.13 1001.37 1001.62 1001.89 1002.16 1002.44 1002.72 1003.02 1003.37 1003.77 1004.24 1004.77 1005.36 1005.98 1006.61 1007.20 1007.73 1008.16 1008.47 1008.64 1008.67 1008.57 1008.34 1008.00 1007.58 1007.09 1006.54 1005.95 1005.32 1004.64 1003.93 1003.17 1002.37 1001.54 1000.69 999.83 998.99 998.18
1000.71 1000.51 1000.43 1000.45 1000.57 1000.75 1000.96 1001.18 1001.41 1001.64 1001.88 1002.15 1002.45 1002.81 1003.24 1003.74 1004.32 1004.95 1005.62 1006.27 1006.89 1007.42 1007.85 1008.14 1008.29 1008.31 1008.19 1007.96 1007.64 1007.25 1006.82 1006.34 1005.83 1005.28 1004.67 1004.01 1003.28 1002.48 1001.61 1000.69 999.73 998.76 997.80
1000.26 1000.10 1000.06 1000.11 1000.24 1000.41 1000.61 1000.81 1001.01 1001.22 1001.44 1001.69 1001.99 1002.36 1002.81 1003.34 1003.94 1004.60 1005.28 1005.94 1006.55 1007.07 1007.48 1007.74 1007.87 1007.86 1007.73 1007.51 1007.22 1006.88 1006.50 1006.10 1005.67 1005.20 1004.67 1004.07 1003.37 1002.58 1001.68 1000.70 999.65 998.55 997.45
999.78 999.68 999.68 999.76 999.90 1000.08 1000.27 1000.45 1000.64 1000.83 1001.04 1001.28 1001.58 1001.96 1002.42 1002.96 1003.58 1004.24 1004.93 1005.58 1006.17 1006.67 1007.05 1007.29 1007.39 1007.37 1007.24 1007.03 1006.77 1006.48 1006.17 1005.84 1005.49 1005.09 1004.63 1004.08 1003.42 1002.63 1001.72 1000.70 999.57 998.39 997.17
999.28 999.22 999.26 999.37 999.52 999.70 999.89 1000.07 1000.24 1000.42 1000.62 1000.86 1001.17 1001.55 1002.02 1002.57 1003.20 1003.86 1004.53 1005.18 1005.75 1006.22 1006.58 1006.80 1006.89 1006.86 1006.75 1006.56 1006.33 1006.09 1005.83 1005.56 1005.27 1004.93 1004.53 1004.03 1003.40 1002.64 1001.73 1000.69 999.53 998.29 997.01
998.73 998.71 998.77 998.90 999.07 999.25 999.43 999.61 999.78 999.96 1000.16 1000.41 1000.72 1001.12 1001.60 1002.16 1002.78 1003.45 1004.11 1004.75 1005.30 1005.76 1006.10 1006.31 1006.40 1006.38 1006.28 1006.11 1005.92 1005.70 1005.49 1005.26 1005.02 1004.73 1004.37 1003.90 1003.32 1002.58 1001.70 1000.68 999.53 998.29 996.99
998.11 998.12 998.21 998.36 998.53 998.72 998.90 999.08 999.25 999.44 999.65 999.91 1000.25 1000.66 1001.16 1001.73 1002.37 1003.03 1003.69 1004.32 1004.87 1005.32 1005.65 1005.86 1005.95 1005.94 1005.85 1005.70 1005.52 1005.33 1005.14 1004.94 1004.72 1004.46 1004.13 1003.71 1003.16 1002.48 1001.65 1000.68 999.59 998.40 997.15
997.43 997.46 997.57 997.73 997.91 998.11 998.30 998.49 998.68 998.89 999.12 999.42 999.78 1000.22 1000.74 1001.33 1001.98 1002.65 1003.31 1003.93 1004.48 1004.92 1005.25 1005.46 1005.55 1005.54 1005.46 1005.32 1005.15 1004.97 1004.78 1004.59 1004.38 1004.14 1003.84 1003.46 1002.97 1002.35 1001.60 1000.73 999.73 998.64 997.49
996.70 996.75 996.87 997.05 997.24 997.45 997.66 997.88 998.10 998.34 998.61 998.95 999.35 999.82 1000.38 1000.99 1001.65 1002.33 1002.99 1003.61 1004.15 1004.59 1004.91 1005.11 1005.20 1005.19 1005.11 1004.97 1004.79 1004.61 1004.41 1004.22 1004.02 1003.79 1003.52 1003.18 1002.75 1002.22 1001.58 1000.83 999.97 999.01 997.99
Thickness
5591 5581 5571 5560 5547 5534 5523 5512 5498 5485 5470 5456 5442 5427 5412 5398 5384 5370 5356 5342 5327 5312 5296 5282 5269 5255 5242 5230 5219 5208 5198 5189 5191 5200 5188 5182 5173 5167 5163 5159 5157 5157 5160
5586 5575 5565 5554 5541 5530 5520 5508 5494 5481 5467 5453 5438 5423 5408 5394 5380 5366 5352 5339 5324 5309 5295 5280 5268 5254 5243 5231 5221 5211 5201 5192 5187 5192 5191 5182 5176 5169 5165 5161 5158 5158 5159
5577 5568 5558 5548 5537 5528 5517 5505 5491 5477 5463 5448 5433 5419 5405 5390 5376 5362 5348 5335 5320 5307 5293 5279 5267 5253 5243 5233 5223 5213 5204 5196 5189 5187 5189 5185 5179 5172 5167 5164 5160 5158 5158
5569 5560 5553 5545 5536 5526 5514 5501 5488 5474 5460 5444 5429 5415 5400 5386 5371 5358 5344 5331 5318 5304 5292 5279 5267 5254 5244 5235 5225 5216 5207 5200 5193 5188 5188 5187 5182 5175 5167 5164 5162 5159 5159
5562 5555 5550 5541 5530 5519 5508 5496 5483 5469 5456 5440 5424 5409 5395 5381 5367 5353 5340 5328 5316 5304 5292 5280 5268 5256 5246 5236 5227 5219 5209 5202 5197 5193 5191 5187 5182 5175 5168 5163 5161 5160 5160
5556 5551 5543 5533 5523 5513 5502 5489 5476 5463 5448 5433 5418 5404 5390 5378 5366 5354 5342 5331 5318 5306 5295 5283 5270 5257 5246 5238 5230 5221 5212 5204 5200 5195 5192 5186 5182 5175 5169 5164 5160 5159 5162
5549 5543 5534 5525 5516 5506 5494 5481 5470 5457 5442 5427 5413 5399 5387 5375 5363 5352 5342 5332 5319 5307 5294 5281 5269 5257 5248 5236 5228 5221 5213 5205 5201 5195 5191 5186 5181 5177 5171 5167 5164 5162 5164
5541 5535 5527 5518 5508 5498 5486 5476 5463 5450 5437 5423 5409 5396 5383 5372 5361 5350 5340 5329 5317 5304 5291 5279 5267 5257 5245 5238 5232 5226 5215 5206 5201 5196 5191 5188 5184 5180 5175 5172 5170 5169 5168
5533 5528 5521 5511 5500 5490 5480 5471 5459 5445 5432 5418 5406 5392 5380 5369 5358 5348 5337 5325 5313 5301 5289 5278 5266 5257 5249 5244 5237 5227 5218 5210 5205 5201 5197 5192 5188 5183 5179 5176 5174 5172 5175
5527 5522 5514 5505 5495 5486 5477 5466 5453 5440 5428 5415 5402 5390 5378 5366 5355 5345 5334 5322 5311 5300 5289 5278 5268 5258 5251 5244 5235 5226 5218 5214 5209 5202 5197 5192 5187 5183 5181 5177 5173 5172 5175
5519 5513 5506 5497 5488 5480 5469 5458 5446 5434 5422 5409 5398 5386 5374 5363 5352 5342 5332 5320 5309 5299 5289 5278 5267 5258 5251 5244 5236 5225 5218 5217 5209 5202 5198 5195 5191 5187 5184 5181 5178 5177 5179
5511 5505 5500 5492 5482 5473 5461 5450 5438 5426 5414 5403 5392 5380 5370 5359 5350 5339 5330 5321 5310 5299 5288 5277 5267 5259 5252 5244 5234 5226 5222 5216 5206 5202 5200 5198 5195 5192 5190 5188 5187 5188 5189
5502 5497 5491 5483 5474 5465 5454 5443 5430 5419 5409 5399 5389 5379 5369 5358 5346 5339 5329 5319 5309 5298 5286 5277 5268 5259 5250 5239 5231 5226 5220 5210 5206 5204 5201 5199 5197 5196 5195 5196 5197 5199 5202
5493 5488 5482 5473 5465 5456 5447 5437 5426 5415 5406 5398 5388 5378 5367 5356 5344 5333 5323 5314 5305 5294 5283 5273 5265 5255 5245 5237 5230 5221 5214 5209 5207 5204 5202 5201 5201 5201 5201 5201 5203 5207 5212
5483 5479 5472 5465 5456 5446 5439 5431 5422 5414 5406 5399 5390 5379 5366 5353 5345 5334 5320 5311 5299 5290 5281 5269 5258 5249 5240 5233 5226 5220 5214 5210 5207 5205 5204 5204 5204 5205 5206 5207 5209 5213 5218
5474 5469 5463 5455 5447 5438 5428 5421 5415 5406 5399 5393 5386 5375 5365 5355 5344 5334 5324 5314 5304 5293 5280 5266 5256 5247 5239 5232 5226 5220 5214 5210 5207 5206 5205 5205 5206 5207 5210 5212 5215 5219 5224
5463 5459 5453 5446 5437 5429 5419 5411 5402 5398 5392 5386 5379 5371 5361 5351 5342 5332 5322 5312 5301 5291 5276 5263 5253 5244 5237 5230 5224 5219 5214 5210 5207 5206 5206 5206 5208 5210 5213 5217 5221 5225 5231
5452 5449 5444 5436 5428 5419 5411 5403 5394 5386 5381 5377 5372 5366 5358 5348 5339 5330 5320 5308 5294 5284 5271 5261 5252 5244 5236 5230 5224 5218 5213 5210 5208 5207 5207 5208 5210 5213 5216 5220 5224 5229 5237
5443 5438 5433 5426 5418 5410 5401 5392 5384 5377 5372 5368 5361 5357 5353 5345 5337 5327 5317 5303 5291 5280 5270 5260 5252 5244 5236 5229 5223 5218 5213 5210 5208 5207 5208 5210 5212 5215 5219 5223 5228 5235 5242
5434 5431 5424 5415 5407 5398 5390 5381 5374 5368 5363 5359 5355 5350 5345 5338 5329 5320 5311 5299 5289 5279 5269 5260 5252 5244 5237 5229 5223 5218 5214 5211 5210 5209 5209 5211 5214 5217 5221 5226 5232 5238 5245
5424 5418 5414 5407 5397 5387 5379 5371 5363 5357 5354 5351 5348 5345 5341 5334 5326 5316 5306 5297 5287 5278 5269 5260 5252 5244 5237 5230 5224 5219 5215 5213 5211 5209 5210 5212 5215 5220 5224 5229 5235 5242 5250
5414 5407 5400 5394 5387 5378 5369 5361 5353 5348 5345 5342 5340 5337 5336 5328 5320 5312 5304 5296 5286 5277 5268 5259 5251 5244 5237 5231 5225 5221 5217 5214 5212 5211 5211 5213 5217 5222 5227 5233 5239 5246 5254
5406 5399 5392 5384 5376 5369 5361 5351 5344 5339 5336 5334 5332 5329 5329 5323 5316 5309 5302 5293 5284 5275 5267 5259 5252 5245 5239 5233 5227 5222 5218 5216 5214 5212 5212 5214 5218 5223 5229 5235 5242 5250 5259
5399 5391 5383 5375 5366 5357 5350 5343 5337 5333 5330 5327 5325 5324 5323 5319 5313 5307 5299 5291 5283 5275 5267 5259 5253 5246 5240 5234 5229 5224 5221 5219 5217 5215 5214 5215 5218 5223 5230 5237 5244 5252 5261
5393 5385 5376 5367 5358 5350 5343 5337 5331 5328 5325 5323 5321 5319 5317 5315 5309 5303 5297 5289 5282 5274 5267 5260 5253 5247 5241 5236 5231 5226 5224 5223 5221 5219 5217 5217 5219 5224 5231 5238 5246 5254 5263
5387 5379 5371 5361 5352 5345 5338 5333 5329 5324 5322 5320 5318 5316 5313 5311 5307 5301 5294 5287 5280 5273 5266 5259 5253 5247 5242 5237 5233 5229 5228 5226 5224 5222 5220 5219 5221 5227 5234 5241 5247 5256 5264